User: anonymous   Login
Location: Pine Mountain Observatory
(43.7910°N, 120.9377°W)
Time: 16:57:03
(UTC-07:00)
Language:

Cosmos 1867 - Orbit

View from above orbital plane
View from above orbital plane
View from above satellite
View from above satellite

Ground track
Ground track

The orbit data is extracted from the following two-line orbital elements,

1 18187U 87060A   14295.44567651  .00000021  00000-0  45869-4 0  1996
2 18187 065.0124 059.8333 0013949 266.3200 093.6289 14.31029540425378
Epoch (UTC): 22 October 2014 10:41:46
Eccentricity: 0.0013949
inclination: 65.0124°
perigee height: 778 km
apogee height: 798 km
right ascension of ascending node: 59.8333°
argument of perigee: 266.3200°
revolutions per day: 14.31029540
mean anomaly at epoch: 93.6289°
orbit number at epoch: 42537

The dashed part of the orbit path shows where the satellite is in the earth's shadow,  

DLR